[[{"header":{"parameterUnit":"m.s-1","parameterCategory":1,"la1":30.2991,"la2":30.254,"lo1":-89.0895,"lo2":-89.0444,"dy":0.0017,"dx":0.0017,"nx":28,"ny":28,"refTime":"2024-04-18T09:00:00:Z","depth":0,"parameterNumber":2,"parameterNumberName":"U-component_of_WINDS"},"data":[0,0,0,0,0,0,0,0,0,0,0,0,0,0,0,0,0,0,0,0,0,0,0,0,0,0,0,0,0,0,0,0,0,0,0,0,0,0,0,0,0,0,0,0,0,0,0,0,0,0,0,0,0,0,0,0,0,0,0.9051,0.9051,0,0.9102,0.9103,0.9104,0.9115,0.9115,0.9115,0.9114,0.9164,0.9166,0.9167,0,0,0,0,0,0,0,0,0,0,0,0,0,0.8959,0.896,0.9051,0.9052,0.9052,0.9102,0.9103,0.9104,0.9115,0.9115,0.9115,0.9114,0.9164,0.9166,0.9168,0,0,0,0,0,0,0,0,0,0,0,0,0,0.9003,0.8961,0.9051,0.9064,0.9066,0.9102,0.9103,0.9104,0.9116,0.9115,0.9114,0.9114,0.9163,0.9165,0.9168,0.9194,0,0,0.9175,0.9177,0,0,0,0,0,0,0,0,0.9001,0.9007,0.9062,0.9063,0.9065,0.9102,0.9089,0.9134,0.9116,0.9097,0.9114,0.9114,0.9144,0.9148,0.9158,0.9196,0.9198,0.9176,0.9177,0.9178,0.9179,0,0,0,0,0,0,0,0.8998,0.9004,0.9071,0.9062,0.9065,0.9066,0.9072,0.9097,0.9122,0.9098,0.9099,0.9105,0.9145,0.9156,0.916,0.9199,0.9176,0.9178,0.9179,0.918,0.9259,0.9259,0,0,0,0,0,0,0.8993,0.9002,0.907,0.9073,0.9031,0.9068,0.9075,0.9091,0.9122,0.9127,0.9106,0.9106,0.9152,0.9157,0.9162,0.9193,0.9178,0.9181,0.9182,0.9258,0.9259,0.9259,0,0,0,0,0,0,0.8991,0.8999,0.9067,0.9038,0.9046,0.9071,0.9088,0.9092,0.9103,0.9128,0.9132,0.9113,0.9152,0.9158,0.9185,0.9195,0.9182,0.9184,0.9257,0.9258,0.9259,0.9256,0,0,0,0,0,0,0.8988,0.8998,0.9009,0.9038,0.9048,0.9092,0.9089,0.9093,0.9108,0.9109,0.9136,0.914,0.9152,0.9182,0.9188,0.9198,0.9186,0.9257,0.9258,0.9259,0.9256,0.9257,0.9258,0,0,0,0,0,0.8985,0.9006,0.9009,0.9017,0.9063,0.9092,0.9098,0.9112,0.9109,0.9119,0.9135,0.9139,0.9193,0.9184,0.9192,0.9202,0.9256,0.9257,0.9259,0.9255,0.9257,0.9258,0,0,0,0,0,0,0.8976,0.901,0.9014,0.9045,0.9066,0.9094,0.9108,0.9114,0.9135,0.9134,0.915,0.9156,0.9182,0.9195,0.9185,0.9228,0.9224,0.9227,0.9219,0.9221,0.9222,0.9218,0.9188,0,0,0,0,0,0.8978,0.9001,0.9028,0.9053,0.9063,0.9084,0.9097,0.9107,0.9128,0.9136,0.9154,0.9174,0.9195,0.9209,0.923,0.9258,0.9263,0.9269,0.927,0.9271,0.9273,0.9287,0.929,0.9264,0.9264,0.9264,0,0,0.8982,0.9003,0.9016,0.9052,0.9069,0.909,0.9091,0.9114,0.913,0.914,0.9167,0.918,0.9203,0.9231,0.9244,0.9242,0.9281,0.9272,0.9273,0.9275,0.9289,0.9291,0.9293,0.9265,0.9264,0.9264,0,0,0.9,0.9019,0.9041,0.9058,0.9084,0.9098,0.9103,0.913,0.914,0.9167,0.9175,0.9193,0.923,0.9246,0.9259,0.9282,0.9286,0.9288,0.9294,0.9308,0.931,0.9312,0.9319,0.9322,0.929,0.929,0.929,0,0.9002,0.9036,0.9052,0.9075,0.9089,0.91,0.9122,0.9137,0.9168,0.9177,0.9176,0.9221,0.9238,0.9268,0.9274,0.9284,0.929,0.9285,0.9309,0.9311,0.9313,0.932,0.9323,0.929,0.929,0.929,0.929,0,0.9035,0.9059,0.9073,0.9104,0.912,0.9142,0.9161,0.9175,0.9183,0.9196,0.9223,0.9243,0.9267,0.9275,0.9283,0.9307,0.9305,0.9306,0.9302,0.9315,0.9322,0.9325,0.929,0.929,0.929,0.929,0,0,0.905,0.9089,0.9094,0.9107,0.9136,0.9154,0.9176,0.9201,0.9213,0.9233,0.9251,0.9282,0.9282,0.9297,0.9306,0.9318,0.9334,0.9317,0.9318,0.9319,0.936,0.9359,0.9362,0.9337,0.9338,0.9338,0.9358,0,0.9071,0.9112,0.9126,0.9159,0.918,0.919,0.9209,0.9228,0.9241,0.9259,0.9273,0.9294,0.9294,0.9302,0.9315,0.9329,0.9342,0.9328,0.9353,0.9353,0.9346,0.9366,0.9365,0.9383,0.9361,0.9361,0.9362,0,0.9101,0.9123,0.9158,0.9184,0.9193,0.921,0.9234,0.9252,0.9273,0.9281,0.9297,0.9305,0.9327,0.9322,0.9351,0.9341,0.9352,0.9361,0.9362,0.9364,0.9358,0.9368,0.9389,0.9391,0.9366,0.9366,0.9366,0,0.9107,0.9145,0.9171,0.9182,0.9213,0.9224,0.9238,0.9259,0.9272,0.9292,0.9301,0.9323,0.9335,0.9351,0.9365,0.936,0.9393,0.9389,0.9399,0.9399,0.9405,0.9404,0.9427,0.9413,0.9413,0.9413,0.9413,0,0.9128,0.9149,0.9174,0.919,0.9213,0.9229,0.9251,0.9264,0.9283,0.93,0.931,0.9326,0.9343,0.9361,0.9371,0.9394,0.9399,0.9405,0.9408,0.9404,0.9403,0.9411,0.941,0.9414,0.9414,0.9413,0.9413,0,0.9139,0.9156,0.9185,0.9212,0.9219,0.9235,0.9257,0.9272,0.9285,0.9307,0.9313,0.9333,0.9354,0.9369,0.9397,0.9404,0.9427,0.943,0.942,0.9421,0.943,0.9429,0.9459,0.9463,0.9446,0.9446,0.9446,0,0.9151,0.9168,0.9196,0.9209,0.9223,0.9243,0.9258,0.9273,0.9287,0.9312,0.9324,0.9346,0.9365,0.9398,0.9414,0.9435,0.9438,0.9447,0.9441,0.9436,0.9437,0.9436,0.9437,0.9447,0.9448,0.9448,0.9448,0,0.9171,0.9179,0.9199,0.9223,0.924,0.9259,0.9278,0.9287,0.9306,0.9321,0.9344,0.9358,0.9386,0.9408,0.943,0.9442,0.9448,0.9449,0.9453,0.9449,0.9442,0.9445,0.9422,0.9449,0.9449,0.9448,0.9448,0.9448,0.9182,0.9197,0.9219,0.9242,0.9258,0.9275,0.929,0.9305,0.9325,0.9349,0.9357,0.938,0.9399,0.943,0.9442,0.946,0.9459,0.9464,0.9465,0.9466,0.9465,0.944,0.9464,0.9464,0.9464,0.9464,0.9464,0,0.9202,0.9217,0.9237,0.9264,0.9281,0.9286,0.9307,0.932,0.9341,0.9359,0.9377,0.9402,0.9423,0.9441,0.9462,0.9472,0.9475,0.9477,0.9476,0.9479,0.9465,0.946,0.9474,0.9474,0.9474,0.9474,0.9474,0.9474,0.9214,0.9239,0.9249,0.9281,0.9296,0.9319,0.933,0.9346,0.9361,0.9388,0.9406,0.9418,0.9435,0.9458,0.9476,0.9481,0.9488,0.9489,0.9494,0.9481,0.948,0.9478,0.9474,0.9491,0.9491,0.9506,0.9506,0.9506]},{"header":{"parameterUnit":"m.s-1","parameterCategory":1,"la1":30.2991,"la2":30.254,"lo1":-89.0895,"lo2":-89.0444,"dy":0.0017,"dx":0.0017,"nx":28,"ny":28,"refTime":"2024-04-18T09:00:00:Z","depth":0,"parameterNumber":3,"parameterNumberName":"V-component_of_WINDS"},"data":[0,0,0,0,0,0,0,0,0,0,0,0,0,0,0,0,0,0,0,0,0,0,0,0,0,0,0,0,0,0,0,0,0,0,0,0,0,0,0,0,0,0,0,0,0,0,0,0,0,0,0,0,0,0,0,0,0,0,3.2101,3.2101,0,3.206,3.2059,3.2059,3.1984,3.1982,3.1981,3.1979,3.1938,3.1938,3.1938,0,0,0,0,0,0,0,0,0,0,0,0,0,3.2118,3.2118,3.2102,3.2101,3.21,3.206,3.2059,3.2059,3.1984,3.1982,3.198,3.1979,3.1938,3.1938,3.1938,0,0,0,0,0,0,0,0,0,0,0,0,0,3.2097,3.2118,3.2102,3.2058,3.2054,3.206,3.2059,3.2058,3.1984,3.1982,3.198,3.1978,3.1938,3.1938,3.1938,3.1984,0,0,3.1939,3.194,0,0,0,0,0,0,0,0,3.2098,3.2097,3.2065,3.2061,3.2056,3.2025,3.205,3.2033,3.1985,3.2011,3.1979,3.1977,3.1969,3.1966,3.1963,3.1982,3.198,3.1939,3.194,3.194,3.194,0,0,0,0,0,0,0,3.21,3.2098,3.2085,3.2065,3.2059,3.2041,3.2036,3.2046,3.2002,3.2008,3.2003,3.1999,3.1966,3.1963,3.1962,3.1979,3.1939,3.194,3.194,3.194,3.2033,3.2035,0,0,0,0,0,0,3.2108,3.21,3.2086,3.2084,3.2072,3.2043,3.2037,3.2037,3.2002,3.1994,3.2001,3.1995,3.1963,3.1961,3.196,3.201,3.194,3.194,3.194,3.2031,3.2033,3.2036,0,0,0,0,0,0,3.2108,3.2107,3.2088,3.209,3.2086,3.2045,3.2046,3.2037,3.2034,3.1996,3.1988,3.2006,3.1962,3.1959,3.1978,3.2008,3.194,3.1941,3.2028,3.2031,3.2035,3.2112,0,0,0,0,0,0,3.2109,3.2108,3.2124,3.2091,3.2087,3.2107,3.2047,3.2038,3.2035,3.2028,3.1999,3.1992,3.196,3.1978,3.1979,3.2007,3.1941,3.2025,3.2029,3.2033,3.2107,3.2118,3.2127,0,0,0,0,0,3.211,3.2148,3.2125,3.2124,3.2106,3.2109,3.2106,3.2068,3.2038,3.2054,3.203,3.1993,3.2005,3.1981,3.198,3.201,3.2023,3.2028,3.2033,3.2102,3.2116,3.2127,0,0,0,0,0,0,3.2186,3.2143,3.2117,3.2146,3.2131,3.2096,3.2115,3.2083,3.2078,3.2071,3.2024,3.2019,3.2044,3.2028,3.2002,3.2052,3.2008,3.2013,3.2061,3.2073,3.2083,3.2086,3.1941,0,0,0,0,0,3.2206,3.2211,3.2173,3.2202,3.2196,3.2157,3.2157,3.2129,3.2112,3.2106,3.2083,3.2069,3.2069,3.207,3.2068,3.2104,3.2097,3.2124,3.2135,3.2143,3.2148,3.2166,3.2178,3.2052,3.2052,3.2052,0,0,3.2247,3.2224,3.2231,3.2217,3.2202,3.2209,3.2153,3.2162,3.2167,3.2108,3.2124,3.2106,3.2087,3.2115,3.2126,3.2103,3.2181,3.215,3.2157,3.2157,3.2173,3.2185,3.2195,3.2056,3.2055,3.2055,0,0,3.2326,3.231,3.2332,3.2318,3.2297,3.2271,3.2277,3.2246,3.2232,3.2248,3.2203,3.2209,3.221,3.2198,3.2193,3.2268,3.2234,3.2269,3.2322,3.234,3.235,3.2359,3.2386,3.2396,3.2274,3.2274,3.2275,0,3.2381,3.2389,3.2347,3.236,3.2355,3.2301,3.2323,3.2313,3.2293,3.2291,3.2266,3.2267,3.225,3.2274,3.2293,3.229,3.2295,3.2272,3.2352,3.236,3.2368,3.2393,3.2403,3.2279,3.2278,3.2278,3.2277,0,3.2457,3.2463,3.2484,3.2465,3.2463,3.248,3.2442,3.2444,3.2417,3.2394,3.241,3.2389,3.2382,3.2385,3.2359,3.2406,3.2392,3.2361,3.2316,3.2385,3.2408,3.2417,3.2285,3.2283,3.2282,3.2281,0,0,3.2582,3.254,3.2548,3.2539,3.2512,3.2517,3.2532,3.2525,3.2528,3.2516,3.2528,3.2531,3.2501,3.2495,3.2466,3.2483,3.2544,3.2448,3.2447,3.2467,3.2595,3.2619,3.2631,3.2521,3.2523,3.2524,3.2596,0,3.2655,3.2678,3.2641,3.2673,3.2679,3.2628,3.2641,3.2627,3.2606,3.2608,3.2585,3.2587,3.2548,3.2544,3.2557,3.2533,3.2569,3.2528,3.2532,3.2533,3.2538,3.2642,3.2668,3.2737,3.2605,3.2606,3.2607,0,3.2743,3.2735,3.2768,3.2739,3.274,3.2752,3.2743,3.2745,3.2728,3.2712,3.2705,3.2671,3.2684,3.2642,3.2659,3.2633,3.2632,3.2621,3.2623,3.2621,3.2574,3.2644,3.2758,3.2769,3.2621,3.262,3.2619,0,3.2831,3.2829,3.2848,3.2841,3.2808,3.2819,3.2805,3.2786,3.2784,3.2776,3.2774,3.2768,3.2765,3.2761,3.2727,3.2699,3.2749,3.2703,3.2736,3.2737,3.2749,3.2749,3.2865,3.2749,3.2749,3.2749,3.2749,0,3.2916,3.2938,3.2887,3.2898,3.2922,3.2879,3.2904,3.2885,3.2868,3.2876,3.2832,3.284,3.2794,3.2798,3.2771,3.279,3.2789,3.2777,3.2769,3.278,3.2782,3.2779,3.2774,3.2752,3.2751,3.2751,3.275,0,3.3018,3.2985,3.3002,3.2969,3.2962,3.298,3.2952,3.2962,3.2939,3.2949,3.2949,3.2912,3.2914,3.2879,3.2874,3.2856,3.2887,3.2871,3.2893,3.2888,3.2923,3.292,3.3041,3.3055,3.2931,3.2932,3.2933,0,3.3075,3.309,3.3059,3.3061,3.305,3.3054,3.3051,3.3011,3.3011,3.2992,3.3004,3.3002,3.2999,3.3004,3.2977,3.2973,3.2957,3.2999,3.2956,3.2967,3.2957,3.2957,3.2958,3.3008,3.301,3.3011,3.3012,0,3.3179,3.3161,3.316,3.3153,3.3151,3.3144,3.3134,3.3138,3.3094,3.3096,3.3097,3.3094,3.3089,3.3088,3.3079,3.3065,3.3032,3.3026,3.3034,3.3045,3.3057,3.3051,3.2918,3.3024,3.3022,3.3022,3.3021,3.302,3.3259,3.3271,3.3251,3.3251,3.3239,3.323,3.3238,3.3215,3.3215,3.3208,3.3184,3.319,3.3172,3.3156,3.3146,3.315,3.3129,3.314,3.3142,3.3146,3.3152,3.3057,3.3148,3.3148,3.3147,3.3147,3.3147,0,3.3361,3.3346,3.3346,3.3333,3.3333,3.3301,3.3288,3.3291,3.3296,3.3282,3.3279,3.3281,3.328,3.3253,3.3248,3.3257,3.3241,3.3257,3.3256,3.3253,3.3171,3.3165,3.3269,3.3269,3.3269,3.3269,3.3269,3.3269,3.3413,3.3431,3.3412,3.3424,3.3408,3.3413,3.3408,3.3401,3.3389,3.3393,3.3392,3.3374,3.3355,3.3349,3.3347,3.3339,3.3339,3.336,3.3347,3.3271,3.3259,3.3248,3.3242,3.3361,3.3361,3.3429,3.343,3.343]}]]